Chariton, IA

7:34 AM CDT on March 28, 2017 (GMT -0500)
Chariton Municipal

Weather History for KCNC - November, 2011

Change the Weather History Date:

Sunday, November 27, 2011

  Actual Average Record
Temperature  
Mean Temperature 34 °F -  
Max Temperature 37 °F 40 °F 73 °F (1990)
Min Temperature 32 °F 23 °F 4 °F (1977)
Degree Days  
Heating Degree Days 30    
Moisture  
Dew Point 26 °F    
Average Humidity 70    
Maximum Humidity 75    
Minimum Humidity 65    
Precipitation  
Precipitation 0.00 in - - ()
Sea Level Pressure  
Sea Level Pressure 30.16 in    
Wind  
Wind Speed 17 mph (NNW)    
Max Wind Speed 26 mph    
Max Gust Speed 37 mph    
Visibility 10 miles    
Events      
Averages and records for this station are not official NWS values.
T = Trace of Precipitation, MM = Missing Value Source: NWS Daily Summary

Daily Weather History Graph

Daily Weather History Graph

Search for Another Location

Airport or City:

Trip Planner

Search our weather history database for the weather conditions in past years. The results will help you decide how hot, cold, wet, or windy it might be!

Date:

Astronomy

Nov. 27, 2011 Rise Set
Actual Time 7:14 AM CST 4:47 PM CST
Civil Twilight 6:44 AM CST 5:17 PM CST
Nautical Twilight 6:10 AM CST 5:51 PM CST
Astronomical Twilight 5:37 AM CST 6:24 PM CST
Moon 9:40 AM CST (11/27) 7:26 PM CST (11/27)
Length of Visible Light 10h 33m
Length of Day
9h 32m
Waxing Crescent, 8% of the Moon is Illuminated
Nov 27
Waxing Crescent
Dec 2
First Quarter
Dec 10
Full
Dec 17
Last Quarter
Dec 24
New

Hourly Weather History & Observations

Time (CST) Temp. Windchill Dew Point Humidity Pressure Visibility Wind Dir Wind Speed Gust Speed Precip Events Conditions
12:15 AM 37.4 °F 27.8 °F 30.2 °F 75% 30.09 in 10.0 mi NNW 17.3 mph 21.9 mph N/A   Overcast
12:35 AM 37.4 °F 28.2 °F 28.4 °F 70% 30.08 in 10.0 mi NNW 16.1 mph 25.3 mph N/A   Overcast
12:55 AM 37.4 °F 28.2 °F 28.4 °F 70% 30.09 in 10.0 mi NW 16.1 mph 23.0 mph N/A   Overcast
1:15 AM 37.4 °F 28.2 °F 28.4 °F 70% 30.08 in 10.0 mi NW 16.1 mph 20.7 mph N/A   Overcast
1:35 AM 37.4 °F 28.5 °F 28.4 °F 70% 30.08 in 10.0 mi NNW 15.0 mph 24.2 mph N/A   Overcast
1:55 AM 35.6 °F 24.2 °F 28.4 °F 75% 30.09 in 10.0 mi North 21.9 mph 26.5 mph N/A   Overcast
2:15 AM 35.6 °F 26.2 °F 26.6 °F 70% 30.09 in 10.0 mi NNW 15.0 mph 18.4 mph N/A   Overcast
2:35 AM 35.6 °F 24.0 °F 26.6 °F 70% 30.09 in 10.0 mi NNW 23.0 mph 34.5 mph N/A   Overcast
2:55 AM 35.6 °F 25.5 °F 26.6 °F 70% 30.10 in 10.0 mi NW 17.3 mph 25.3 mph N/A   Overcast
3:15 AM 35.6 °F 24.2 °F 26.6 °F 70% 30.09 in 10.0 mi NW 21.9 mph 28.8 mph N/A   Overcast
3:35 AM 35.6 °F 24.2 °F 26.6 °F 70% 30.10 in 10.0 mi NNW 21.9 mph 31.1 mph N/A   Overcast
3:55 AM 35.6 °F 25.2 °F 26.6 °F 70% 30.10 in 10.0 mi NW 18.4 mph 25.3 mph N/A   Overcast
4:15 AM 35.6 °F 25.2 °F 26.6 °F 70% 30.11 in 10.0 mi NNW 18.4 mph 26.5 mph N/A   Overcast
4:35 AM 35.6 °F 25.9 °F 26.6 °F 70% 30.11 in 10.0 mi NNW 16.1 mph - N/A   Overcast
4:55 AM 35.6 °F 23.2 °F 26.6 °F 70% 30.11 in 10.0 mi NNW 26.5 mph 32.2 mph N/A   Overcast
5:15 AM 35.6 °F 25.2 °F 26.6 °F 70% 30.11 in 10.0 mi NNW 18.4 mph 27.6 mph N/A   Overcast
5:35 AM 35.6 °F 23.7 °F 24.8 °F 65% 30.12 in 10.0 mi NNW 24.2 mph 36.8 mph N/A   Overcast
6:15 AM 35.6 °F 24.2 °F 24.8 °F 65% 30.14 in 10.0 mi NNW 21.9 mph - N/A   Overcast
6:35 AM 35.6 °F 26.2 °F 26.6 °F 70% 30.14 in 10.0 mi NNW 15.0 mph 23.0 mph N/A   Overcast
6:55 AM 35.6 °F 25.5 °F 26.6 °F 70% 30.15 in 10.0 mi North 17.3 mph 29.9 mph N/A   Overcast
7:15 AM 33.8 °F 22.8 °F 26.6 °F 75% 30.16 in 10.0 mi North 18.4 mph 21.9 mph N/A   Overcast
7:35 AM 33.8 °F 22.2 °F 26.6 °F 75% 30.16 in 10.0 mi NNW 20.7 mph 26.5 mph N/A   Overcast
7:55 AM 33.8 °F 23.2 °F 26.6 °F 75% 30.17 in 10.0 mi NNW 17.3 mph 26.5 mph N/A   Overcast
8:15 AM 33.8 °F 22.5 °F 26.6 °F 75% 30.17 in 10.0 mi NNW 19.6 mph - N/A   Overcast
8:35 AM 33.8 °F 22.2 °F 24.8 °F 70% 30.17 in 10.0 mi NNW 20.7 mph 26.5 mph N/A   Overcast
9:15 AM 33.8 °F 21.9 °F 24.8 °F 70% 30.18 in 10.0 mi NNW 21.9 mph 31.1 mph N/A   Overcast
9:35 AM 33.8 °F 22.8 °F 24.8 °F 70% 30.19 in 10.0 mi NNW 18.4 mph 25.3 mph N/A   Overcast
9:55 AM 33.8 °F 22.8 °F 24.8 °F 70% 30.19 in 10.0 mi North 18.4 mph 27.6 mph N/A   Overcast
10:15 AM 33.8 °F 23.2 °F 24.8 °F 70% 30.19 in 10.0 mi North 17.3 mph - N/A   Overcast
10:35 AM 33.8 °F 23.5 °F 24.8 °F 70% 30.19 in 10.0 mi North 16.1 mph 27.6 mph N/A   Overcast
11:15 AM 33.8 °F 22.8 °F 24.8 °F 70% 30.19 in 10.0 mi North 18.4 mph - N/A   Overcast
11:55 AM 33.8 °F 22.2 °F 24.8 °F 70% 30.18 in 10.0 mi NNW 20.7 mph 27.6 mph N/A   Overcast
12:15 PM 35.6 °F 25.9 °F 24.8 °F 65% 30.17 in 10.0 mi NNW 16.1 mph - N/A   Overcast
12:35 PM 35.6 °F 25.2 °F 24.8 °F 65% 30.17 in 10.0 mi NNW 18.4 mph 25.3 mph N/A   Overcast
12:55 PM 35.6 °F 25.9 °F 24.8 °F 65% 30.18 in 10.0 mi NW 16.1 mph 19.6 mph N/A   Overcast
1:15 PM 35.6 °F 25.5 °F 24.8 °F 65% 30.18 in 10.0 mi North 17.3 mph 21.9 mph N/A   Overcast
1:35 PM 35.6 °F 26.2 °F 24.8 °F 65% 30.18 in 10.0 mi NNW 15.0 mph 18.4 mph N/A   Overcast
1:55 PM 35.6 °F 26.6 °F 24.8 °F 65% 30.18 in 10.0 mi North 13.8 mph - N/A   Overcast
2:15 PM 35.6 °F 27.5 °F 24.8 °F 65% 30.17 in 10.0 mi NNW 11.5 mph - N/A   Overcast
2:35 PM 35.6 °F 27.1 °F 24.8 °F 65% 30.17 in 10.0 mi NW 12.7 mph - N/A   Overcast
2:55 PM 35.6 °F 28.0 °F 24.8 °F 65% 30.17 in 10.0 mi NW 10.4 mph 18.4 mph N/A   Overcast
3:15 PM 35.6 °F 27.5 °F 24.8 °F 65% 30.18 in 10.0 mi NW 11.5 mph 18.4 mph N/A   Overcast
3:35 PM 33.8 °F 23.9 °F 24.8 °F 70% 30.18 in 10.0 mi NNW 15.0 mph 18.4 mph N/A   Overcast
3:55 PM 33.8 °F 23.5 °F 24.8 °F 70% 30.19 in 10.0 mi NNW 16.1 mph - N/A   Overcast
4:15 PM 33.8 °F 24.3 °F 24.8 °F 70% 30.19 in 10.0 mi NNW 13.8 mph 20.7 mph N/A   Overcast
4:35 PM 33.8 °F 25.3 °F 24.8 °F 70% 30.20 in 10.0 mi North 11.5 mph - N/A   Overcast
4:55 PM 33.8 °F 24.8 °F 24.8 °F 70% 30.20 in 10.0 mi NNW 12.7 mph - N/A   Overcast
5:15 PM 33.8 °F 23.2 °F 24.8 °F 70% 30.20 in 10.0 mi NNW 17.3 mph - N/A   Overcast
5:35 PM 33.8 °F 25.3 °F 24.8 °F 70% 30.20 in 10.0 mi NNW 11.5 mph - N/A   Overcast
5:55 PM 33.8 °F 24.3 °F 24.8 °F 70% 30.21 in 10.0 mi North 13.8 mph - N/A   Overcast
6:15 PM 33.8 °F 23.9 °F 24.8 °F 70% 30.21 in 10.0 mi NNW 15.0 mph - N/A   Overcast
6:35 PM 33.8 °F 25.8 °F 24.8 °F 70% 30.21 in 10.0 mi North 10.4 mph 17.3 mph N/A   Overcast
6:55 PM 33.8 °F 25.8 °F 24.8 °F 70% 30.22 in 10.0 mi North 10.4 mph - N/A   Overcast
7:15 PM 33.8 °F 26.4 °F 24.8 °F 70% 30.22 in 10.0 mi North 9.2 mph - N/A   Overcast
7:35 PM 33.8 °F 27.0 °F 24.8 °F 70% 30.22 in 10.0 mi North 8.1 mph - N/A   Overcast
7:55 PM 33.8 °F 27.0 °F 24.8 °F 70% 30.22 in 10.0 mi North 8.1 mph - N/A   Overcast
8:35 PM 33.8 °F 27.0 °F 24.8 °F 70% 30.22 in 10.0 mi North 8.1 mph - N/A   Overcast
8:55 PM 32.0 °F 24.2 °F 24.8 °F 75% 30.22 in 10.0 mi NNW 9.2 mph - N/A   Overcast
9:15 PM 32.0 °F 24.2 °F 24.8 °F 75% 30.22 in 10.0 mi NNW 9.2 mph - N/A   Overcast
9:35 PM 32.0 °F 23.6 °F 24.8 °F 75% 30.22 in 10.0 mi North 10.4 mph - N/A   Overcast
9:55 PM 32.0 °F 23.0 °F 24.8 °F 75% 30.22 in 10.0 mi North 11.5 mph - N/A   Overcast
10:15 PM 32.0 °F 25.6 °F 24.8 °F 75% 30.21 in 10.0 mi North 6.9 mph - N/A   Overcast
10:35 PM 32.0 °F 26.4 °F 24.8 °F 75% 30.21 in 10.0 mi NNW 5.8 mph - N/A   Overcast
10:55 PM 32.0 °F 26.4 °F 24.8 °F 75% 30.21 in 10.0 mi North 5.8 mph - N/A   Overcast
11:15 PM 30.2 °F 25.4 °F 24.8 °F 80% 30.21 in 10.0 mi NNE 4.6 mph - N/A   Overcast
11:35 PM 30.2 °F 25.4 °F 24.8 °F 80% 30.21 in 10.0 mi North 4.6 mph - N/A   Overcast
11:55 PM 30.2 °F 23.4 °F 24.8 °F 80% 30.20 in 10.0 mi North 6.9 mph - N/A   Overcast